Temperature
15 16 16 16 15 15 15 15 15 15 15 15 15 15 15 15 15 15 15 15 15 15 15 15 15 16 16 16 16 16 16 16 15 15 16 16 16 16 16 16 16 15 15
16 16 16 16 15 15 15 15 15 15 15 15 15 15 15 15 15 15 15 15 15 15 15 15 15 15 15 16 16 15 15 15 15 15 15 15 15 15 15 15 15 15 15
15 15 15 15 15 15 15 15 15 15 15 14 14 14 15 15 15 15 15 15 15 15 15 15 15 15 15 15 15 15 15 15 15 15 15 15 15 15 15 15 15 15 15
15 15 15 15 15 15 15 15 15 14 14 14 14 14 14 14 14 14 15 15 15 15 15 15 15 15 15 15 15 15 15 15 15 14 14 14 15 15 15 15 15 15 15
14 15 15 15 14 14 15 14 14 14 14 14 14 14 14 14 14 14 14 14 14 14 15 15 15 15 15 15 15 15 15 15 14 14 14 14 15 15 15 15 15 15 15
14 14 14 14 14 14 14 14 14 14 14 14 14 14 14 14 14 14 14 14 14 14 14 14 14 15 15 15 15 15 15 14 14 14 14 14 14 14 15 15 15 15 15
14 14 14 14 14 14 14 14 14 14 14 14 14 14 14 14 14 14 14 14 14 14 14 14 14 14 14 14 14 14 14 14 14 14 14 14 14 14 14 14 14 14 14
14 14 14 14 14 14 14 14 14 14 14 14 14 14 14 14 14 14 14 14 14 14 14 14 14 14 14 14 14 14 14 14 14 14 14 14 14 14 14 14 14 14 14
13 13 13 13 13 13 13 13 13 14 13 14 14 14 14 13 14 14 14 14 13 14 14 14 14 14 14 14 14 14 14 14 13 13 14 14 14 14 14 14 14 14 14
13 13 13 13 13 13 13 13 13 13 13 13 13 13 13 13 13 13 13 13 13 13 13 13 13 13 13 13 14 14 13 13 13 13 13 14 14 14 14 14 14 14 14
13 13 13 13 13 13 13 13 13 13 13 13 13 13 13 13 13 13 13 13 13 13 13 13 13 13 13 13 13 13 13 13 13 13 13 13 13 13 13 13 14 14 13
12 12 12 12 12 12 12 12 12 12 12 12 12 12 12 12 12 12 12 12 13 13 13 12 12 12 12 13 13 13 13 13 13 13 13 13 13 13 13 13 13 13 13
12 12 12 12 12 12 12 12 12 12 12 12 12 12 12 12 12 12 12 12 12 12 12 12 12 12 12 12 12 12 12 12 12 13 13 13 13 13 13 13 13 13 13
12 12 12 12 12 12 12 12 12 12 12 12 12 12 11 11 11 12 12 12 12 12 12 12 12 12 12 12 12 12 12 12 12 12 12 12 12 12 12 12 12 12 12
11 11 11 12 12 12 12 11 11 11 11 11 11 11 11 11 11 11 11 11 11 11 11 11 11 11 11 11 11 11 12 12 12 12 12 12 12 12 12 12 12 12 12
11 11 11 11 11 11 11 11 11 11 11 11 11 11 11 11 11 11 11 11 11 11 11 11 11 11 11 11 11 11 11 11 11 11 11 11 11 11 11 11 12 12 11
11 11 11 11 11 11 11 11 11 11 11 11 11 11 11 11 11 11 11 11 10 11 10 11 11 11 11 11 11 11 11 11 11 11 11 11 11 11 11 11 11 11 11
10 10 10 10 11 11 11 11 11 10 10 10 10 11 11 10 10 10 10 10 10 10 10 10 10 10 10 10 10 10 10 10 10 10 10 11 11 11 11 11 11 11 11
10 10 10 10 10 10 10 10 10 10 10 10 10 10 10 10 10 10 10 10 10 10 10 10 10 10 10 10 10 10 10 10 10 10 10 10 10 10 10 10 10 10 10
9 9 9 10 10 10 10 10 10 10 10 10 10 10 10 10 10 10 10 10 10 10 10 10 9 9 9 9 10 10 10 10 10 10 10 10 10 10 10 10 10 10 10
8 8 9 9 9 9 9 9 9 9 9 10 10 10 10 10 9 10 9 9 9 9 9 9 9 9 9 9 9 9 9 9 9 9 9 9 9 9 9 9 9 9 9
7 8 8 8 8 9 9 9 9 9 9 9 9 9 9 9 9 9 9 9 9 9 9 9 9 9 9 9 9 9 8 8 9 9 9 9 9 9 9 9 9 9 9
7 7 7 7 8 8 8 8 8 8 8 8 9 9 9 9 9 9 9 9 9 9 8 8 8 9 9 8 8 8 8 8 8 8 8 8 8 8 8 8 8 8 8
6 7 7 7 7 7 8 8 8 8 8 8 8 8 8 8 8 8 8 8 8 8 8 8 8 8 8 8 8 8 8 8 7 7 7 7 7 7 8 8 8 8 8
5 6 6 6 7 7 7 7 7 7 7 7 7 7 7 8 8 8 8 8 8 8 8 8 8 8 8 8 8 8 7 7 7 7 6 7 7 7 7 7 7 7 7
5 5 5 6 6 6 6 6 7 7 7 7 7 7 7 7 7 7 7 7 7 7 7 7 7 7 7 7 7 7 7 7 7 7 6 6 6 6 6 7 7 7 7
Wind_Speed
8 13 14 12 11 10 10 9 9 8 8 8 8 8 8 8 8 8 8 8 9 9 9 10 10 11 11 11 12 12 13 13 14 15 15 15 14 14 14 13 14 14 16
9 14 14 13 11 10 10 9 9 8 7 7 7 7 7 7 7 7 7 7 8 9 9 9 9 10 10 10 10 10 10 11 11 13 14 14 13 13 13 14 14 13 15
10 14 14 12 11 10 10 9 8 8 7 7 7 7 7 6 6 6 6 7 7 8 8 8 9 9 9 9 9 9 8 7 7 8 10 11 11 12 13 13 13 15 14
11 12 12 11 10 10 9 9 8 7 7 7 7 6 6 6 6 6 7 7 7 8 8 8 8 8 8 8 8 7 6 5 5 6 6 9 10 11 12 12 13 14 14
10 12 12 11 9 9 9 8 8 7 7 6 6 6 6 5 5 6 7 7 7 7 8 8 8 8 8 8 7 6 5 4 5 5 7 10 10 11 11 11 12 13 13
9 13 12 11 9 8 8 8 7 6 6 6 6 5 5 5 6 6 7 7 7 7 7 8 7 8 7 6 6 5 4 4 4 4 7 9 10 11 11 10 11 12 13
8 11 11 11 9 9 8 7 7 6 6 6 5 5 5 5 6 6 7 7 7 7 6 7 7 7 6 5 4 3 3 3 4 5 8 9 9 10 10 10 10 12 12
7 9 11 10 10 8 7 6 6 6 6 5 5 5 5 5 5 6 6 6 7 6 6 6 6 6 6 5 3 3 3 3 3 5 8 9 9 9 9 9 10 11 12
6 7 9 10 9 8 7 6 6 5 5 5 5 5 5 5 5 5 6 6 6 6 6 6 5 6 5 4 3 2 2 2 3 4 6 8 8 8 9 10 10 11 11
5 5 5 7 8 8 7 6 6 5 5 5 5 5 5 6 5 5 6 6 6 5 5 5 5 6 5 4 3 1 0 1 2 4 6 7 8 8 9 9 10 10 10
4 3 4 3 4 5 6 6 6 6 6 6 6 6 5 5 5 6 6 7 6 6 5 5 5 6 5 4 3 1 1 0 2 4 6 7 7 8 8 9 9 9 9
4 3 3 3 3 3 3 5 5 5 5 5 5 5 4 4 5 6 7 7 7 6 6 5 5 5 5 3 2 2 1 1 2 4 6 7 7 7 8 8 8 8 9
3 3 2 2 2 2 1 3 3 4 4 4 4 4 4 4 4 5 5 6 6 6 4 4 4 4 3 3 2 2 2 1 2 4 6 7 7 7 7 7 7 7 8
3 3 2 2 2 2 1 1 2 3 3 2 3 4 3 3 3 4 4 4 4 4 3 3 2 3 3 3 2 2 2 2 3 5 6 7 7 7 6 6 6 7 7
3 3 3 3 2 2 1 1 2 2 2 3 2 3 4 3 2 3 3 3 3 3 3 2 1 1 1 1 2 2 2 2 4 4 5 7 8 7 6 6 6 7 7
3 3 2 2 2 2 2 2 2 2 2 3 2 2 3 3 3 3 3 3 3 3 3 2 2 1 1 2 1 2 2 3 3 4 5 6 7 7 6 6 6 7 7
2 2 2 2 2 2 2 2 2 2 3 2 3 2 2 2 2 2 2 2 2 3 3 2 2 1 1 2 2 3 3 3 3 3 4 5 6 6 6 6 6 7 7
2 1 1 1 2 2 2 1 2 2 2 2 3 3 2 2 2 3 2 2 2 3 2 2 2 1 2 2 2 2 3 3 3 4 4 5 5 5 5 5 6 7 7
2 2 1 1 1 1 1 2 2 2 2 2 3 3 3 3 2 3 2 2 2 3 2 1 2 2 2 3 2 2 3 3 3 3 3 4 5 5 4 5 5 5 6
2 2 1 1 1 1 1 1 2 2 1 2 2 3 3 3 3 3 2 2 2 2 2 2 2 2 3 3 3 3 2 2 2 2 2 4 4 4 4 5 5 5 5
2 2 1 1 0 1 1 1 2 2 1 1 1 2 3 3 3 3 2 2 2 2 2 2 2 3 2 2 2 2 2 2 2 2 3 3 3 4 5 4 4 4 3
1 1 1 1 1 1 1 2 1 2 2 2 2 2 2 3 3 3 3 3 2 2 2 2 2 2 1 1 2 1 1 1 2 2 2 2 2 3 3 2 3 3 3
2 0 1 1 1 1 1 1 1 2 1 1 1 1 2 3 3 3 3 3 3 2 2 2 3 3 2 1 1 2 2 1 0 1 1 1 2 2 1 1 2 2 3
3 1 1 1 1 1 1 1 2 2 2 2 2 1 2 3 3 3 3 3 3 2 2 2 2 2 3 3 1 1 1 2 2 0 1 2 2 1 0 0 1 2 2
4 3 1 1 1 1 1 1 2 2 2 2 2 3 2 2 3 3 3 3 3 2 2 2 2 2 2 3 2 1 1 1 1 2 1 1 1 1 1 1 1 2 2
5 4 3 2 1 0 0 1 1 2 3 3 2 2 2 2 2 2 3 3 2 2 2 2 3 3 3 3 2 2 2 2 2 1 1 1 1 1 1 0 1 1 2
Wind_Direction
117 125 136 133 132 128 123 118 114 109 107 105 104 102 98 95 93 91 91 92 91 91 92 89 88 87 84 81 79 78 80 80 81 84 83 82 82 83 83 84 85 83 85
120 127 134 132 133 129 125 120 115 113 112 111 108 107 106 102 99 99 99 98 96 95 96 93 91 90 88 87 83 82 84 84 87 92 90 82 80 82 84 84 87 88 89
118 127 132 130 131 129 126 122 118 117 116 117 115 111 110 109 105 106 106 101 101 100 98 98 95 91 89 88 87 86 86 82 86 98 98 95 89 87 87 87 90 93 91
115 121 126 126 131 131 129 127 124 118 116 116 118 114 111 108 105 110 111 105 101 102 98 99 97 94 92 91 88 88 83 76 78 95 101 101 99 97 95 92 95 95 93
111 114 119 125 128 129 130 130 125 120 115 114 116 119 116 111 107 107 108 104 103 102 100 97 95 96 93 91 90 87 76 61 67 81 85 94 98 104 102 98 98 97 95
110 111 120 124 127 128 128 129 127 125 123 121 122 123 121 117 113 114 113 107 109 107 106 103 100 98 95 93 92 82 62 41 71 66 80 91 98 111 108 104 103 101 97
110 113 125 127 126 128 129 128 130 132 127 123 121 124 125 120 117 118 117 114 115 115 111 110 109 107 103 97 92 73 44 43 83 72 78 86 99 113 111 109 106 104 101
111 117 127 131 129 129 130 126 126 135 133 129 124 125 125 126 122 118 120 119 117 122 123 122 119 114 112 104 97 70 44 31 55 83 85 88 102 114 117 116 114 109 105
103 113 127 135 134 133 132 131 126 129 134 136 129 128 128 131 127 123 124 124 124 123 129 129 129 124 121 116 110 89 45 1 15 75 95 96 106 118 122 121 118 115 112
102 110 123 135 139 139 137 141 141 144 150 151 147 141 140 140 141 141 131 132 136 134 135 134 137 136 131 131 130 127 356 325 34 71 88 102 113 119 124 127 122 118 116
119 118 124 124 129 143 154 153 151 157 163 164 162 163 161 151 141 141 138 139 141 145 148 145 145 147 146 150 157 173 259 230 103 88 90 110 122 125 127 127 125 123 121
139 128 113 117 115 137 154 150 163 166 165 170 163 166 162 148 145 140 139 142 144 148 156 160 161 167 161 159 179 186 238 212 109 100 103 119 128 130 128 128 130 131 131
151 136 120 114 119 123 125 151 152 154 156 173 166 156 158 142 131 127 132 139 142 143 144 162 169 181 178 169 177 186 181 121 110 111 118 130 137 140 137 136 134 136 139
149 149 144 136 148 145 136 152 147 144 145 156 164 163 149 123 120 116 120 135 133 135 140 146 166 187 183 172 174 159 152 125 116 114 125 141 149 152 149 147 144 143 146
156 161 162 159 176 158 147 167 150 137 139 138 146 159 145 133 138 134 127 128 127 136 135 143 142 116 104 107 132 134 110 106 112 108 127 146 152 152 152 151 151 150 149
166 160 156 172 177 161 178 176 151 138 140 133 136 135 137 137 137 142 136 121 115 119 134 146 143 136 83 80 76 87 85 90 102 113 128 141 150 151 149 153 155 154 151
166 153 161 176 170 175 190 182 130 126 130 125 137 136 120 123 136 128 123 122 120 128 130 124 105 95 96 76 56 52 51 72 80 98 115 130 139 142 148 157 167 159 153
127 137 170 181 163 187 179 151 122 116 114 121 137 143 135 118 116 113 114 117 118 119 103 111 107 94 91 87 66 44 38 55 70 85 100 115 124 131 145 152 159 159 156
114 117 118 112 167 181 166 144 134 132 124 127 132 138 151 149 136 114 117 114 115 113 112 116 118 116 106 92 77 56 39 47 60 80 98 109 117 124 131 133 138 149 158
112 109 101 108 157 152 142 151 140 144 137 125 129 143 151 150 149 129 124 126 119 121 114 118 137 122 114 111 84 61 46 44 54 65 85 87 96 108 119 123 127 138 148
90 94 106 124 131 118 135 163 161 179 166 150 122 131 141 142 146 135 137 132 126 140 147 144 130 125 116 115 87 59 40 44 53 51 72 87 89 94 103 117 122 133 143
84 95 135 152 157 149 169 176 175 167 170 168 145 130 130 136 144 147 142 150 139 140 148 150 138 132 135 127 118 117 89 19 18 26 47 77 89 85 87 105 122 134 139
26 61 176 155 156 137 147 156 155 134 128 133 161 154 108 117 127 129 137 132 135 146 167 175 165 146 158 174 107 130 146 188 305 345 20 49 72 80 82 98 120 137 144
1 6 112 138 145 144 145 161 168 171 171 179 172 157 124 116 114 118 128 127 133 139 161 182 168 161 158 176 169 44 125 137 147 175 345 19 25 58 64 115 134 125 131
17 23 46 73 108 148 155 178 187 179 172 154 147 145 143 123 112 120 126 124 132 142 161 168 168 161 159 169 162 147 93 73 114 158 213 287 341 336 346 58 116 136 129
21 27 31 43 24 63 132 173 190 171 153 143 136 142 144 133 120 119 126 126 131 140 159 168 175 168 170 167 160 153 158 159 177 163 187 214 257 279 301 12 103 172 161
Height
1512 1513 1515 1517 1518 1520 1521 1522 1524 1525 1526 1527 1528 1529 1530 1531 1532 1533 1534 1535 1536 1537 1538 1539 1540 1541 1541 1542 1543 1544 1544 1545 1546 1546 1547 1548 1548 1549 1549 1550 1550 1551 1551
1511 1513 1515 1517 1518 1520 1521 1522 1524 1525 1527 1528 1529 1530 1531 1532 1533 1534 1535 1536 1537 1538 1539 1540 1541 1542 1542 1543 1544 1545 1546 1547 1547 1548 1549 1549 1550 1551 1551 1552 1552 1553 1553
1511 1513 1515 1517 1518 1520 1521 1523 1524 1525 1527 1528 1529 1530 1531 1532 1533 1534 1535 1536 1537 1538 1539 1540 1541 1542 1543 1544 1545 1546 1547 1548 1549 1549 1550 1551 1551 1552 1553 1553 1554 1554 1555
1512 1513 1514 1516 1518 1519 1521 1522 1524 1525 1527 1528 1529 1530 1531 1532 1533 1534 1535 1536 1537 1538 1539 1540 1541 1542 1544 1545 1546 1547 1548 1549 1550 1551 1551 1552 1553 1553 1554 1555 1555 1556 1557
1512 1513 1514 1516 1518 1519 1521 1522 1524 1525 1527 1528 1529 1530 1531 1532 1533 1534 1535 1536 1537 1538 1539 1540 1542 1543 1544 1545 1546 1548 1549 1550 1551 1552 1552 1553 1554 1554 1555 1556 1557 1557 1558
1512 1513 1514 1516 1518 1519 1521 1522 1523 1525 1526 1527 1529 1530 1531 1532 1533 1534 1535 1536 1537 1538 1539 1541 1542 1543 1544 1545 1547 1548 1549 1551 1552 1552 1553 1554 1554 1555 1556 1557 1558 1559 1559
1512 1513 1514 1516 1517 1519 1520 1521 1523 1524 1526 1527 1528 1529 1530 1531 1533 1534 1535 1536 1537 1538 1539 1540 1542 1543 1544 1546 1547 1548 1550 1551 1552 1553 1554 1554 1555 1556 1557 1558 1559 1560 1560
1512 1513 1514 1516 1517 1518 1519 1521 1522 1523 1525 1526 1528 1529 1530 1531 1532 1533 1535 1536 1537 1538 1539 1540 1541 1543 1544 1545 1547 1548 1550 1551 1552 1553 1554 1555 1555 1556 1557 1558 1559 1560 1561
1512 1513 1514 1515 1516 1518 1519 1520 1521 1523 1524 1526 1527 1528 1530 1531 1532 1533 1534 1535 1536 1538 1539 1540 1541 1542 1544 1545 1547 1548 1550 1551 1552 1553 1554 1555 1555 1556 1557 1558 1559 1560 1561
1511 1512 1513 1514 1516 1517 1518 1519 1521 1522 1523 1525 1526 1527 1529 1530 1531 1532 1533 1535 1536 1537 1538 1539 1541 1542 1543 1545 1546 1548 1549 1551 1552 1553 1554 1555 1555 1556 1557 1558 1559 1560 1561
1510 1511 1512 1513 1515 1516 1517 1519 1520 1521 1522 1523 1525 1526 1528 1529 1530 1531 1533 1534 1535 1536 1537 1539 1540 1542 1543 1544 1546 1547 1549 1550 1551 1552 1553 1554 1555 1556 1557 1558 1559 1560 1561
1509 1510 1511 1512 1514 1515 1516 1518 1519 1520 1521 1522 1523 1525 1526 1527 1529 1530 1531 1533 1534 1535 1537 1538 1539 1541 1542 1543 1545 1546 1548 1549 1550 1551 1552 1553 1555 1556 1557 1558 1559 1560 1560
1508 1509 1510 1511 1512 1514 1515 1516 1517 1518 1520 1521 1522 1523 1525 1526 1527 1529 1530 1531 1533 1534 1535 1537 1538 1540 1541 1542 1544 1545 1547 1548 1549 1550 1551 1552 1554 1555 1556 1557 1558 1559 1560
1506 1507 1508 1509 1511 1512 1513 1515 1516 1517 1518 1519 1521 1522 1524 1525 1526 1527 1529 1530 1531 1533 1534 1536 1537 1538 1540 1541 1543 1544 1545 1547 1548 1549 1550 1551 1552 1553 1555 1556 1557 1558 1559
1503 1505 1506 1507 1509 1510 1512 1513 1514 1515 1517 1518 1519 1521 1522 1523 1524 1526 1527 1528 1530 1531 1533 1534 1536 1537 1538 1540 1541 1543 1544 1545 1547 1548 1549 1550 1551 1552 1553 1554 1555 1556 1557
1501 1502 1503 1505 1506 1508 1509 1511 1512 1513 1515 1516 1518 1519 1520 1522 1523 1524 1525 1527 1528 1529 1531 1532 1534 1535 1537 1538 1540 1541 1542 1544 1545 1546 1547 1548 1549 1551 1552 1553 1554 1555 1556
1498 1499 1500 1502 1503 1505 1507 1508 1510 1511 1513 1514 1515 1517 1518 1520 1521 1522 1523 1525 1526 1528 1529 1531 1532 1534 1535 1536 1538 1539 1540 1542 1543 1544 1546 1547 1548 1549 1550 1551 1553 1554 1555
1495 1496 1497 1499 1500 1502 1504 1505 1507 1508 1510 1511 1513 1514 1516 1517 1519 1520 1521 1523 1524 1526 1527 1529 1530 1531 1533 1534 1536 1537 1539 1540 1541 1543 1544 1545 1546 1547 1549 1550 1551 1552 1553
1492 1492 1494 1495 1497 1498 1500 1502 1504 1506 1507 1509 1510 1512 1513 1515 1516 1517 1519 1520 1522 1523 1525 1526 1528 1530 1531 1532 1534 1535 1537 1538 1539 1541 1542 1543 1544 1545 1547 1548 1549 1551 1552
1489 1490 1490 1492 1493 1495 1497 1499 1501 1502 1504 1506 1507 1509 1510 1512 1513 1515 1516 1518 1519 1521 1522 1524 1526 1527 1529 1530 1531 1533 1535 1536 1537 1539 1540 1541 1542 1544 1545 1546 1547 1549 1550
1486 1487 1488 1489 1490 1492 1493 1495 1497 1499 1501 1502 1504 1506 1507 1509 1511 1512 1513 1515 1517 1518 1520 1522 1524 1525 1526 1528 1530 1531 1533 1534 1535 1537 1538 1539 1540 1541 1542 1544 1545 1546 1547
1484 1484 1485 1486 1487 1488 1490 1492 1494 1496 1498 1499 1501 1503 1504 1506 1508 1509 1510 1512 1514 1516 1518 1519 1521 1522 1524 1526 1527 1529 1530 1533 1533 1534 1535 1536 1537 1539 1540 1541 1542 1544 1544
1482 1482 1482 1483 1484 1486 1488 1490 1491 1493 1494 1496 1497 1499 1501 1503 1504 1506 1508 1509 1511 1513 1514 1516 1518 1519 1521 1523 1525 1527 1528 1528 1530 1532 1532 1533 1534 1535 1537 1538 1540 1541 1542
1480 1480 1480 1481 1482 1483 1485 1486 1488 1489 1490 1492 1494 1496 1498 1500 1501 1503 1504 1506 1508 1509 1511 1513 1515 1516 1518 1520 1522 1524 1526 1526 1528 1528 1530 1531 1532 1532 1534 1535 1536 1538 1539
1479 1479 1479 1479 1480 1481 1482 1484 1485 1487 1488 1489 1491 1493 1494 1496 1498 1500 1501 1503 1504 1506 1508 1510 1511 1513 1515 1517 1518 1520 1522 1523 1525 1526 1526 1528 1529 1530 1531 1532 1533 1534 1535
1478 1477 1477 1478 1478 1479 1480 1481 1483 1484 1485 1486 1488 1489 1491 1493 1495 1497 1498 1500 1501 1503 1505 1506 1508 1509 1511 1513 1515 1517 1518 1520 1521 1522 1523 1524 1526 1527 1528 1529 1530 1531 1532